Temperature
21 21 21 21 21 21 21 21 20 20 20 20 20 20 20 20 20 19 19 19 19 19 19 19 19 19 18 18 18 18 18 18 18 18 18 18 17 17 18 18 18 17 17
22 21 21 21 21 21 21 20 20 20 20 20 20 20 20 20 19 19 19 19 19 19 19 19 19 19 19 19 18 18 18 18 18 18 18 17 17 17 17 18 18 17 17
22 21 21 21 21 21 20 20 20 20 20 20 19 19 19 19 19 19 19 19 19 19 19 19 19 19 19 19 18 18 18 18 18 18 18 17 17 17 17 17 17 17 17
22 21 21 21 21 21 20 20 20 20 19 19 19 19 19 19 19 19 19 19 19 19 19 19 19 19 19 19 18 18 18 18 18 17 17 17 17 17 17 17 17 17 17
22 21 21 21 21 21 20 20 20 20 19 19 19 19 19 19 19 19 19 19 19 19 19 19 19 19 19 19 18 18 18 17 17 17 18 18 18 18 18 18 17 17 17
22 21 21 21 21 21 20 20 20 20 20 19 19 19 19 19 19 19 19 19 19 19 19 19 19 19 19 19 19 18 18 17 17 18 18 18 18 18 18 18 17 17 17
22 21 21 21 21 21 20 20 20 20 20 19 19 19 19 19 19 19 19 19 19 19 19 19 19 19 19 19 19 18 18 17 17 18 18 18 18 18 18 18 18 17 17
22 21 21 21 21 21 20 20 20 20 20 20 19 19 19 19 19 19 19 19 19 19 19 19 19 19 19 19 19 18 18 18 18 18 17 18 18 18 18 18 18 18 17
22 21 21 21 21 21 20 20 20 20 20 20 20 19 19 19 19 19 19 19 19 19 19 19 19 19 19 19 19 19 18 18 18 18 18 18 18 18 18 18 18 18 18
21 21 21 21 21 20 20 20 20 20 20 20 19 19 19 19 19 19 19 19 19 19 19 19 19 19 19 19 19 19 18 18 18 18 18 18 18 18 18 19 18 18 18
21 21 21 21 20 20 20 20 20 20 20 19 19 19 19 19 18 18 18 18 18 18 18 19 19 19 19 19 19 19 19 18 18 18 18 18 18 18 18 19 19 18 18
20 21 21 21 20 20 20 20 20 20 19 19 19 19 19 18 18 18 18 18 18 18 18 18 18 18 18 18 18 19 19 18 18 18 18 18 18 18 18 18 18 18 18
20 20 20 20 20 20 20 19 19 19 19 19 19 19 18 18 18 18 18 18 18 18 18 18 18 18 18 18 18 18 18 18 18 18 18 18 18 17 17 18 18 18 18
20 20 20 20 20 20 19 19 19 19 19 19 18 18 18 18 18 18 18 18 18 18 18 18 18 18 18 18 18 18 18 18 18 18 18 18 18 17 17 17 18 18 18
20 20 20 20 20 19 19 19 19 19 18 18 18 18 18 18 18 18 18 17 17 17 17 17 17 17 17 17 17 17 17 17 17 18 18 18 18 17 17 17 17 17 18
20 20 20 19 19 19 19 19 19 18 18 18 18 18 18 18 18 18 17 17 17 17 17 17 17 17 17 17 17 17 17 17 17 17 17 17 17 17 17 17 17 17 17
20 20 19 19 19 19 19 19 19 18 18 18 18 18 18 17 17 17 17 17 17 17 17 17 17 17 17 17 17 17 17 17 17 17 17 17 17 17 17 17 17 17 17
20 20 19 19 19 19 19 19 18 18 18 18 18 18 17 17 17 17 17 17 17 16 16 16 16 16 16 16 16 16 16 17 17 17 17 17 17 17 17 17 17 17 17
20 19 19 19 19 19 19 18 18 18 18 18 17 17 17 17 17 17 17 16 16 16 16 16 16 16 16 16 16 16 16 16 16 17 17 17 17 17 17 17 17 17 17
19 19 19 19 19 18 18 18 18 18 17 17 17 17 17 17 17 16 16 16 16 16 16 16 15 15 15 15 15 16 16 16 16 16 17 17 17 17 17 17 17 17 17
19 19 19 19 18 18 18 18 18 17 17 17 17 17 16 16 16 16 16 16 15 15 15 15 15 15 15 15 15 15 16 16 16 16 16 17 17 17 17 17 17 17 17
19 19 19 19 18 18 18 18 18 17 17 17 16 16 16 16 16 16 15 15 15 15 15 14 14 14 14 14 14 14 15 15 16 16 16 16 16 16 16 16 17 17 17
19 19 19 19 18 18 18 18 17 17 17 16 16 16 16 16 15 15 15 15 15 14 14 14 14 14 14 14 14 14 14 14 14 15 16 16 16 16 16 16 16 16 17
19 19 19 19 18 18 18 17 17 17 16 16 16 16 15 15 15 15 15 14 14 14 14 14 14 13 13 13 13 13 13 13 13 14 15 15 15 16 16 16 16 16 16
19 19 19 19 18 18 17 17 17 16 16 16 15 15 15 15 15 14 14 14 14 14 14 13 13 13 13 13 13 13 13 13 13 13 13 14 15 15 15 15 16 16 16
19 19 19 18 18 17 17 17 16 16 16 15 15 15 15 14 14 14 14 14 13 13 13 13 13 13 13 12 12 12 12 12 12 12 13 13 14 14 15 15 15 16 16
Wind_Speed
11 15 22 22 22 22 21 21 21 21 21 21 21 21 21 20 20 19 18 17 16 15 14 14 13 13 13 14 14 14 14 15 16 16 17 17 17 18 18 18 17 16 19
16 19 23 23 22 22 21 21 21 20 20 20 20 19 19 19 18 17 17 16 15 14 14 13 13 13 13 13 13 13 13 14 15 16 16 15 15 16 18 18 16 16 18
19 19 22 23 22 22 21 21 21 20 19 19 18 18 18 17 17 16 16 15 14 14 13 13 12 12 12 12 11 11 12 12 13 14 14 12 13 15 17 18 18 17 18
18 18 20 23 22 22 21 21 20 20 19 18 18 17 17 16 16 15 15 14 13 13 12 12 11 11 11 10 10 10 9 9 10 11 11 11 13 17 18 18 17 17 17
15 18 21 23 22 21 21 20 20 19 19 18 18 17 16 16 15 14 13 13 13 12 12 11 10 10 9 9 8 8 7 6 6 8 10 12 14 17 18 17 16 16 17
13 17 21 23 22 21 20 20 19 19 18 18 17 16 16 15 15 14 13 12 12 11 11 11 10 9 8 7 6 6 5 4 4 7 12 14 14 17 17 17 16 16 16
13 14 20 22 21 21 20 19 19 19 18 17 16 16 15 15 14 13 12 12 11 11 10 10 9 8 7 5 4 4 3 4 5 8 12 14 15 18 17 17 16 16 16
14 12 17 21 21 20 19 19 18 18 17 17 16 15 15 14 13 13 12 11 11 11 10 9 9 8 7 5 3 2 1 3 5 7 11 13 17 18 17 17 16 16 16
13 11 12 16 18 19 19 18 18 17 16 16 15 14 14 13 13 12 12 11 11 11 10 9 9 8 7 6 4 3 1 2 4 5 11 12 17 18 18 17 17 16 16
11 10 9 10 12 14 16 17 17 16 15 15 14 13 13 12 12 12 11 11 10 10 10 10 9 8 8 7 6 4 3 1 2 4 8 13 18 18 18 18 17 17 16
12 10 9 9 10 12 13 15 15 15 14 13 12 12 11 9 9 10 11 12 11 11 10 10 9 9 8 8 7 7 5 3 2 4 9 14 19 19 19 19 18 18 17
12 11 10 10 9 10 11 12 11 11 11 11 9 9 9 8 8 8 10 12 11 10 10 9 9 8 8 7 7 8 7 5 4 4 8 14 19 19 19 19 19 19 18
11 11 10 10 9 8 6 9 7 7 8 8 9 8 7 6 5 6 6 8 9 9 7 7 7 7 6 6 6 6 7 6 4 5 7 14 19 20 20 20 20 19 20
10 9 9 9 8 7 8 6 6 5 5 5 7 8 6 3 3 3 4 5 6 5 5 4 5 6 6 7 7 6 7 6 6 6 7 14 19 20 20 20 20 20 21
9 8 7 8 8 7 6 4 5 4 5 6 6 7 7 4 2 3 3 3 4 4 4 3 3 4 4 4 5 5 5 7 8 8 7 13 18 19 20 21 22 22 23
9 9 8 8 8 7 6 5 4 5 7 7 7 7 7 6 4 3 2 2 2 4 4 3 3 2 2 2 3 4 5 6 7 8 9 14 19 21 22 22 22 23 24
9 9 8 8 8 8 7 5 5 6 7 6 6 8 7 6 5 4 2 1 2 3 2 2 1 1 1 2 3 3 4 5 6 8 10 13 16 21 23 22 24 25 25
8 8 7 8 8 7 6 5 4 5 5 5 6 7 6 6 6 4 2 1 1 1 1 1 1 0 1 2 3 4 3 3 5 7 8 11 14 16 20 24 26 27 27
8 8 7 7 7 6 6 4 4 4 4 4 5 5 5 6 6 5 2 1 2 2 1 0 1 1 1 2 3 4 3 4 4 5 6 10 13 15 16 20 25 27 27
8 8 8 7 6 6 4 4 3 3 2 3 4 5 6 6 7 5 3 2 3 3 2 2 1 0 1 2 3 4 4 5 4 5 6 7 10 13 16 16 18 21 26
8 8 7 7 5 4 3 3 3 2 1 1 2 4 5 6 6 5 3 2 3 2 2 2 1 1 2 1 2 4 4 4 5 5 4 4 5 9 12 14 15 16 17
8 8 8 7 5 4 3 2 2 2 1 2 1 2 2 4 6 5 4 3 3 3 3 3 2 1 2 2 1 2 4 5 4 3 2 3 4 4 5 10 12 14 15
8 8 8 7 6 5 4 3 4 4 4 3 3 2 1 2 3 4 4 3 3 3 2 2 2 2 1 2 1 2 0 3 4 4 3 3 3 2 3 4 7 11 14
9 8 8 7 7 5 5 5 5 4 3 1 1 1 2 2 0 2 3 4 3 2 2 1 2 1 1 1 2 0 2 4 2 4 4 4 4 3 4 4 3 6 10
10 9 8 8 7 6 6 7 6 4 3 1 1 2 3 3 3 2 3 3 2 2 1 1 1 1 1 2 2 2 1 1 2 2 4 5 5 4 4 4 3 4 6
9 9 8 8 7 6 7 7 7 6 4 3 2 2 2 2 3 3 3 3 2 2 1 1 1 1 1 2 2 2 2 2 2 2 3 4 5 5 4 3 3 3 5
Wind_Direction
154 155 148 140 134 130 126 123 120 118 116 115 114 114 114 114 114 114 114 114 114 112 108 105 104 101 101 102 103 104 106 108 110 112 113 114 117 118 117 116 114 114 115
150 153 148 142 138 134 131 128 126 124 123 121 121 120 120 119 119 119 119 118 116 114 111 108 107 104 104 105 105 106 109 111 113 112 110 111 116 119 120 118 118 120 119
143 148 146 143 140 138 135 133 132 130 128 127 126 126 125 125 125 124 124 121 119 117 115 113 111 109 108 107 106 106 108 110 114 113 109 107 114 121 123 121 122 122 121
140 143 145 142 140 139 138 137 137 135 134 133 133 132 131 131 130 130 129 127 124 123 120 118 116 114 112 110 108 106 105 109 116 122 121 118 119 123 125 125 126 126 124
136 141 145 142 141 140 140 140 140 140 140 140 140 139 138 137 136 135 133 132 131 129 127 126 123 121 118 114 110 105 101 103 111 126 137 129 126 129 129 129 130 130 129
134 140 144 142 141 141 142 142 143 144 145 145 145 145 144 144 143 143 142 140 139 138 136 134 132 130 128 124 117 108 96 82 94 125 141 139 137 138 136 135 135 134 134
135 140 143 142 142 143 144 144 145 147 148 148 149 150 151 152 152 151 151 150 147 147 146 144 143 143 141 137 129 114 88 65 94 131 144 148 148 145 143 142 142 141 139
136 138 142 143 144 144 145 146 147 148 150 152 154 155 157 158 157 157 159 159 157 156 157 156 156 158 161 163 162 151 74 68 92 131 156 158 157 152 151 150 149 149 147
134 136 138 143 146 147 148 150 151 152 154 156 158 160 162 164 165 166 168 170 168 168 169 171 173 176 179 186 196 213 250 76 90 126 161 167 166 160 158 157 157 156 155
136 135 134 140 144 147 150 152 154 155 157 160 162 165 168 171 174 176 178 181 182 182 183 184 187 192 197 205 216 230 247 261 121 157 171 177 176 169 167 166 165 165 164
142 142 148 149 151 151 152 157 157 159 163 165 169 171 170 175 182 188 192 192 193 194 194 194 197 203 210 219 230 236 243 228 194 192 185 188 184 177 175 175 173 173 173
156 159 163 162 160 163 163 155 159 162 166 169 172 173 173 178 186 193 201 201 200 201 200 204 210 213 214 224 241 244 236 231 220 198 195 195 189 186 183 182 182 180 180
161 162 168 167 165 167 152 154 164 165 167 172 177 179 176 177 186 195 196 204 204 206 209 218 220 221 216 218 229 236 231 235 225 210 203 198 194 193 191 189 189 187 187
157 153 158 157 154 152 143 155 161 160 163 167 175 178 167 164 164 172 181 190 191 194 205 219 213 219 222 225 224 225 225 228 226 223 218 203 200 198 195 195 196 195 195
150 141 137 135 135 127 122 140 140 142 152 157 152 163 161 147 146 148 161 173 185 189 194 208 216 219 221 230 226 220 219 225 225 215 217 206 203 202 199 201 203 202 201
144 135 130 119 120 116 115 117 125 132 137 133 132 143 144 140 139 130 124 139 182 194 198 208 217 215 227 230 236 226 225 229 229 218 216 211 208 208 208 208 209 210 208
140 132 127 121 116 111 110 113 121 125 121 122 132 141 141 138 133 124 126 138 178 186 185 191 213 191 236 242 251 247 237 234 233 224 219 212 213 217 218 217 218 216 214
132 128 126 123 115 112 113 113 118 119 121 130 141 143 146 142 137 131 133 137 174 136 128 139 136 161 274 282 279 273 260 246 243 239 228 219 217 220 222 223 222 221 220
129 127 118 117 115 114 112 108 107 109 118 140 143 142 144 145 145 140 136 120 92 83 54 62 101 144 266 287 281 274 272 262 253 252 240 232 226 224 223 226 226 225 224
130 130 124 112 109 106 95 84 77 78 91 129 143 151 147 144 140 135 122 93 82 68 35 22 2 301 246 270 290 295 281 270 264 255 246 242 233 229 226 226 228 230 229
131 127 121 115 113 107 97 98 102 103 108 112 149 164 161 149 138 128 116 98 86 80 47 12 6 345 320 342 360 325 311 287 272 261 255 251 246 242 233 227 225 225 230
142 135 128 126 129 125 122 131 132 125 111 110 83 98 138 138 138 140 137 128 112 93 56 39 43 28 338 22 73 4 338 334 328 300 291 268 266 258 242 236 227 224 226
153 148 143 141 136 129 118 95 77 63 52 46 46 37 28 108 138 149 155 142 129 114 93 56 76 84 341 333 72 137 141 287 313 319 323 316 308 281 262 248 232 227 225
163 154 149 144 140 137 123 110 110 110 108 124 124 35 4 15 354 169 154 145 138 130 124 111 107 113 123 313 324 246 199 203 244 309 317 320 321 303 293 281 264 238 229
165 159 153 146 144 141 134 129 120 118 134 132 82 47 19 4 13 65 121 129 132 134 138 119 73 78 158 202 246 280 295 273 205 213 292 317 325 306 295 281 269 258 240
163 159 154 150 154 151 140 134 133 134 128 103 76 51 23 15 22 45 91 110 130 141 166 204 228 266 255 243 237 227 223 243 253 233 259 292 299 296 298 289 283 271 262
Height
1527 1530 1533 1535 1537 1538 1540 1541 1542 1543 1545 1546 1547 1548 1549 1550 1551 1552 1553 1554 1554 1555 1556 1556 1557 1557 1558 1558 1558 1559 1559 1559 1560 1561 1561 1562 1563 1563 1564 1565 1565 1566 1567
1525 1529 1533 1535 1537 1539 1540 1542 1543 1544 1546 1547 1548 1549 1550 1551 1552 1553 1554 1554 1555 1556 1557 1557 1558 1558 1559 1559 1560 1560 1561 1561 1562 1563 1563 1564 1565 1565 1566 1567 1567 1568 1569
1525 1530 1533 1536 1538 1540 1541 1543 1544 1545 1546 1548 1549 1550 1551 1551 1552 1553 1554 1555 1556 1557 1558 1558 1559 1559 1560 1560 1561 1562 1562 1563 1564 1565 1565 1566 1567 1567 1568 1569 1569 1570 1571
1526 1530 1534 1537 1539 1540 1542 1543 1545 1546 1547 1548 1549 1550 1551 1552 1553 1554 1555 1556 1557 1558 1558 1559 1560 1560 1561 1562 1562 1563 1564 1565 1565 1566 1567 1568 1569 1569 1570 1570 1571 1572 1572
1528 1531 1534 1537 1539 1541 1542 1544 1545 1546 1548 1549 1550 1551 1552 1553 1554 1555 1555 1556 1557 1558 1559 1560 1560 1561 1562 1563 1563 1564 1565 1566 1567 1567 1568 1569 1570 1571 1571 1572 1573 1573 1574
1529 1532 1535 1538 1540 1541 1543 1544 1545 1547 1548 1549 1550 1551 1552 1553 1554 1555 1556 1557 1558 1558 1559 1560 1561 1562 1563 1564 1565 1565 1566 1567 1568 1568 1569 1570 1571 1572 1572 1573 1574 1575 1576
1530 1533 1536 1538 1540 1542 1544 1545 1546 1547 1548 1549 1550 1551 1552 1553 1554 1555 1556 1557 1558 1559 1560 1561 1562 1562 1563 1564 1565 1566 1567 1568 1568 1569 1570 1571 1572 1573 1573 1574 1575 1576 1577
1531 1534 1536 1539 1541 1543 1544 1546 1547 1548 1549 1550 1551 1552 1552 1554 1555 1555 1556 1557 1558 1559 1560 1561 1562 1563 1564 1565 1566 1567 1568 1568 1569 1570 1571 1572 1573 1574 1574 1575 1576 1577 1578
1532 1534 1537 1539 1542 1543 1545 1546 1547 1548 1549 1550 1551 1552 1553 1553 1554 1555 1556 1557 1558 1559 1560 1561 1562 1563 1564 1565 1566 1567 1568 1569 1569 1570 1571 1572 1573 1574 1575 1576 1577 1577 1578
1533 1535 1537 1540 1543 1544 1545 1547 1548 1549 1549 1550 1551 1552 1553 1553 1554 1555 1556 1557 1558 1559 1559 1560 1561 1562 1563 1564 1566 1567 1568 1568 1569 1570 1570 1571 1573 1574 1575 1576 1577 1578 1579
1534 1535 1538 1540 1543 1544 1545 1546 1548 1549 1550 1550 1551 1552 1553 1553 1554 1555 1556 1557 1557 1558 1559 1560 1560 1562 1563 1564 1565 1566 1567 1567 1568 1569 1570 1571 1572 1573 1574 1575 1577 1578 1579
1533 1535 1538 1540 1542 1544 1545 1546 1547 1548 1549 1550 1551 1552 1552 1553 1553 1554 1555 1556 1557 1557 1558 1558 1559 1560 1561 1562 1563 1564 1565 1566 1567 1568 1568 1569 1570 1571 1573 1574 1576 1577 1578
1533 1535 1537 1539 1541 1543 1545 1546 1547 1548 1549 1549 1550 1551 1552 1552 1552 1553 1554 1554 1555 1556 1556 1557 1558 1559 1560 1561 1561 1562 1563 1564 1565 1566 1567 1567 1568 1570 1571 1573 1574 1576 1577
1533 1534 1536 1539 1540 1542 1544 1545 1546 1547 1548 1549 1549 1550 1551 1551 1551 1552 1552 1553 1553 1554 1555 1555 1556 1557 1558 1558 1559 1560 1561 1562 1563 1564 1564 1565 1566 1567 1569 1571 1573 1574 1576
1532 1534 1536 1538 1540 1541 1542 1544 1545 1546 1547 1548 1548 1549 1550 1550 1550 1550 1551 1551 1552 1552 1553 1553 1554 1555 1555 1556 1557 1557 1558 1559 1560 1561 1562 1563 1563 1565 1566 1568 1570 1571 1573
1531 1533 1535 1537 1539 1541 1541 1543 1545 1545 1546 1547 1547 1548 1549 1549 1549 1549 1550 1550 1550 1551 1551 1551 1551 1552 1553 1554 1554 1555 1556 1556 1557 1557 1558 1560 1560 1561 1563 1565 1566 1568 1570
1532 1534 1535 1536 1537 1540 1541 1543 1544 1545 1546 1546 1547 1547 1548 1548 1548 1549 1549 1549 1549 1549 1549 1549 1549 1550 1550 1551 1551 1552 1552 1553 1554 1554 1555 1556 1557 1558 1559 1561 1562 1564 1566
1531 1533 1535 1537 1538 1540 1541 1542 1544 1544 1545 1546 1546 1547 1547 1547 1547 1547 1548 1548 1548 1547 1547 1547 1547 1547 1548 1548 1548 1549 1549 1549 1550 1550 1551 1552 1553 1554 1555 1557 1558 1560 1562
1531 1533 1535 1537 1538 1539 1540 1542 1543 1544 1544 1545 1545 1546 1546 1546 1546 1547 1547 1546 1546 1546 1545 1545 1545 1545 1545 1545 1545 1545 1545 1545 1546 1546 1547 1548 1548 1549 1551 1552 1554 1555 1557
1533 1534 1535 1536 1538 1539 1541 1542 1543 1543 1544 1544 1544 1545 1545 1545 1545 1546 1546 1545 1545 1544 1544 1543 1543 1543 1543 1542 1542 1541 1541 1541 1541 1542 1543 1544 1544 1545 1546 1547 1549 1550 1552
1532 1534 1535 1537 1538 1540 1541 1541 1542 1543 1543 1543 1543 1544 1544 1544 1544 1544 1544 1543 1543 1542 1542 1541 1541 1540 1540 1540 1539 1538 1537 1537 1537 1538 1539 1539 1540 1541 1542 1543 1544 1546 1547
1532 1534 1535 1536 1539 1539 1540 1541 1541 1542 1542 1543 1543 1543 1543 1543 1543 1543 1542 1542 1541 1540 1540 1539 1538 1538 1538 1538 1537 1536 1535 1535 1534 1535 1535 1536 1536 1537 1537 1538 1539 1541 1542
1532 1533 1534 1536 1538 1539 1540 1540 1540 1541 1541 1542 1542 1542 1542 1542 1542 1541 1540 1540 1539 1538 1538 1537 1537 1536 1536 1536 1536 1536 1535 1533 1533 1532 1533 1533 1533 1533 1534 1534 1535 1536 1537
1531 1533 1534 1536 1537 1538 1539 1539 1539 1540 1540 1540 1540 1540 1540 1540 1540 1539 1538 1538 1537 1537 1536 1536 1535 1534 1534 1534 1534 1534 1534 1533 1533 1530 1530 1530 1530 1531 1531 1531 1531 1532 1533
1531 1533 1534 1535 1536 1537 1538 1538 1538 1538 1538 1538 1538 1538 1538 1538 1537 1537 1536 1536 1535 1535 1534 1533 1533 1532 1531 1531 1531 1530 1530 1530 1530 1529 1527 1526 1527 1527 1528 1528 1528 1529 1529
1530 1532 1533 1534 1535 1536 1537 1537 1536 1536 1536 1536 1536 1536 1536 1535 1535 1534 1534 1534 1533 1532 1531 1531 1530 1529 1529 1528 1527 1527 1527 1527 1527 1526 1525 1523 1523 1523 1524 1524 1524 1525 1525